Temperature
6 7 7 7 7 8 8 8 8 9 10 11 11 10 10 10 10 10 9 9 8 8 8 7 7 7 7 7 7 7 7 7 7 6 6 6 6 6 6 5 5 5 5 5
6 7 7 7 7 8 8 8 8 9 9 10 10 10 10 9 9 9 8 8 8 7 7 7 7 6 6 6 6 6 6 6 6 5 5 5 5 5 5 5 4 4 4 4
5 6 6 5 7 7 7 8 8 8 8 9 9 9 8 8 8 8 8 7 7 7 6 6 6 6 6 6 5 5 5 5 5 5 5 4 4 4 4 4 4 4 4 4
4 4 4 6 7 8 8 8 8 8 8 8 8 8 7 7 7 6 6 6 6 6 6 6 5 5 5 5 5 5 5 4 4 4 4 4 4 4 3 3 3 3 3 3
3 4 5 6 6 6 6 6 6 7 7 7 7 7 6 6 6 6 5 5 5 5 5 5 5 5 4 4 4 4 4 4 4 4 4 3 3 3 3 3 3 2 2 2
3 4 4 5 5 6 6 5 5 6 5 5 5 5 4 5 5 4 4 4 4 4 4 4 4 4 4 4 4 3 3 3 3 3 3 3 3 2 2 2 2 2 1 1
2 3 4 4 4 5 4 4 4 5 5 5 4 4 4 3 3 3 3 3 3 4 4 3 3 3 3 3 3 3 3 2 2 2 2 2 2 2 1 1 1 1 1 0
2 2 3 3 4 3 3 4 4 4 4 3 3 3 3 3 3 3 3 3 3 3 3 2 2 2 2 2 2 2 2 2 2 2 1 1 1 1 1 0 0 -0 -0 -0
2 2 3 3 3 3 3 3 3 3 3 3 2 2 2 2 2 2 2 2 2 2 2 2 2 2 2 2 1 1 1 1 1 1 1 1 1 0 0 -0 -1 -1 -1 -1
2 2 3 3 3 2 2 2 2 2 2 2 1 1 1 1 1 1 1 1 1 1 1 1 1 1 1 1 0 1 1 1 0 0 0 -0 -0 -0 -1 -1 -1 -2 -2 -2
1 2 2 2 2 2 2 1 1 1 1 1 1 0 0 -0 -0 0 0 0 0 0 -0 -0 -0 -0 -0 -0 -0 0 0 -0 -0 -1 -1 -1 -1 -1 -1 -2 -2 -2 -2 -3
1 1 1 1 1 1 1 0 0 0 0 0 -0 -0 -0 -1 -1 -1 -1 -1 -1 -1 -1 -1 -1 -1 -1 -1 -1 -1 -1 -1 -1 -1 -1 -2 -2 -2 -2 -2 -2 -3 -3 -3
1 1 0 0 -0 -0 -0 -0 -0 -0 -0 -1 -1 -1 -1 -1 -1 -1 -1 -1 -1 -1 -1 -1 -1 -2 -2 -1 -1 -1 -1 -2 -2 -2 -2 -2 -2 -2 -2 -2 -3 -3 -3 -3
-0 -1 -1 -1 -1 -1 -1 -1 -1 -1 -1 -1 -1 -1 -1 -2 -2 -2 -2 -2 -2 -2 -2 -2 -2 -2 -2 -2 -2 -2 -2 -2 -2 -2 -2 -2 -3 -3 -3 -3 -3 -3 -3 -4
-2 -1 -2 -2 -2 -2 -2 -2 -2 -2 -2 -2 -2 -2 -2 -2 -2 -2 -2 -2 -2 -2 -2 -2 -2 -3 -3 -3 -2 -2 -3 -3 -2 -3 -3 -3 -3 -3 -3 -4 -4 -4 -4 -4
-3 -2 -2 -3 -3 -2 -3 -3 -3 -3 -3 -3 -3 -3 -3 -3 -3 -3 -3 -3 -3 -3 -3 -3 -3 -3 -3 -3 -3 -3 -3 -3 -3 -3 -3 -3 -4 -4 -4 -4 -4 -5 -5 -5
-3 -3 -3 -4 -4 -3 -3 -4 -4 -4 -4 -4 -4 -4 -4 -4 -4 -4 -4 -4 -4 -4 -4 -4 -4 -4 -4 -4 -4 -4 -4 -4 -4 -4 -4 -4 -4 -4 -5 -5 -5 -5 -5 -5
-4 -4 -4 -4 -4 -4 -4 -4 -4 -4 -4 -4 -4 -4 -4 -4 -4 -4 -4 -4 -4 -4 -4 -4 -4 -4 -4 -4 -4 -4 -4 -4 -4 -4 -4 -5 -5 -5 -5 -5 -5 -5 -6 -6
-5 -4 -5 -5 -5 -5 -5 -5 -5 -5 -5 -5 -5 -5 -5 -5 -5 -5 -5 -5 -5 -5 -5 -5 -5 -5 -5 -5 -5 -5 -5 -5 -5 -5 -5 -5 -5 -5 -5 -6 -6 -6 -6 -6
-5 -5 -5 -5 -5 -5 -5 -5 -5 -5 -5 -5 -5 -5 -5 -5 -5 -5 -5 -5 -6 -6 -6 -6 -6 -5 -5 -6 -6 -6 -5 -5 -5 -5 -5 -5 -6 -6 -6 -6 -6 -6 -6 -7
-6 -6 -6 -6 -6 -6 -6 -6 -6 -6 -6 -6 -6 -6 -6 -6 -6 -6 -6 -6 -6 -6 -6 -6 -6 -6 -6 -6 -6 -6 -6 -6 -6 -6 -6 -6 -6 -6 -6 -6 -7 -7 -7 -7
-6 -6 -6 -6 -6 -6 -6 -6 -6 -6 -6 -6 -6 -7 -7 -7 -7 -7 -7 -7 -7 -7 -7 -6 -6 -6 -7 -7 -6 -6 -6 -6 -6 -6 -6 -7 -7 -7 -7 -7 -7 -7 -7 -7
-7 -7 -7 -7 -7 -7 -7 -7 -7 -7 -7 -7 -7 -7 -7 -8 -8 -8 -8 -8 -8 -7 -7 -7 -7 -7 -7 -7 -7 -7 -7 -7 -7 -7 -7 -7 -7 -7 -7 -7 -7 -8 -8 -8
-7 -7 -8 -8 -7 -7 -7 -7 -7 -7 -7 -8 -8 -8 -8 -8 -8 -8 -8 -8 -8 -8 -8 -8 -8 -8 -8 -7 -7 -7 -7 -7 -7 -7 -7 -7 -8 -8 -8 -8 -8 -8 -8 -8
-8 -8 -8 -8 -8 -8 -8 -8 -8 -8 -8 -8 -8 -9 -9 -9 -9 -9 -9 -8 -8 -8 -8 -8 -8 -8 -8 -8 -8 -8 -8 -8 -8 -8 -8 -8 -8 -8 -8 -8 -8 -8 -8 -8
-8 -8 -8 -8 -8 -8 -8 -8 -8 -8 -8 -9 -9 -9 -9 -9 -9 -9 -9 -9 -9 -8 -8 -8 -8 -8 -8 -8 -8 -8 -8 -8 -8 -8 -8 -8 -8 -8 -8 -8 -8 -8 -8 -8
-9 -9 -9 -9 -9 -9 -9 -9 -9 -9 -9 -9 -9 -9 -9 -9 -9 -9 -9 -9 -9 -9 -9 -9 -9 -9 -9 -9 -9 -9 -9 -9 -8 -8 -8 -8 -8 -9 -9 -8 -8 -8 -8 -8
Wind_Speed
6 6 4 6 10 12 13 11 8 7 7 6 2 1 2 2 4 5 4 4 4 4 4 5 5 5 5 4 4 4 5 5 4 4 4 4 4 3 3 2 2 2 1 1
5 5 4 7 9 12 13 13 11 9 9 3 2 3 2 2 3 3 3 4 4 4 4 4 4 4 4 4 4 5 5 4 4 4 4 4 3 3 2 2 1 1 1 0
3 3 4 7 9 12 10 10 10 11 7 3 2 2 2 2 2 2 2 3 4 3 4 4 4 5 5 5 5 5 5 4 4 4 4 4 3 2 2 1 1 1 0 0
2 1 5 3 1 3 7 7 5 3 1 1 0 2 3 3 2 3 3 3 2 2 3 3 4 4 5 5 5 5 4 4 4 4 4 3 3 2 1 1 0 0 1 1
2 4 5 2 2 1 3 3 1 2 1 1 2 2 3 4 3 3 3 3 3 3 3 3 4 4 5 5 4 4 4 4 3 4 3 3 2 1 1 0 0 0 1 1
3 3 3 1 4 4 0 2 3 2 2 2 2 1 0 4 5 5 5 4 3 3 3 3 3 4 5 4 4 4 3 3 3 3 3 3 2 1 1 0 0 1 2 2
4 3 2 3 5 3 2 2 4 3 2 2 1 1 2 4 4 4 4 4 4 3 3 2 3 4 4 3 3 2 3 3 3 2 2 2 2 1 1 0 0 1 2 2
3 3 3 4 3 2 1 3 4 4 4 4 3 4 4 4 4 3 3 4 3 3 3 3 3 4 3 2 2 3 3 3 3 2 1 1 2 1 1 0 0 1 2 3
2 2 1 3 3 3 3 3 4 4 4 4 3 3 4 4 3 3 3 3 3 3 3 3 3 3 3 2 2 3 3 3 2 2 1 1 1 1 0 0 1 2 2 3
0 1 1 3 3 4 4 4 5 5 5 4 3 3 3 3 3 3 4 4 4 4 4 3 3 4 3 3 3 3 3 2 2 2 1 1 1 0 0 1 1 2 3 3
1 2 3 4 4 5 6 6 6 6 5 4 4 3 3 3 3 3 3 3 4 4 3 3 3 3 3 3 3 3 3 2 2 1 1 1 1 1 1 1 2 3 3 3
2 2 1 3 5 6 6 5 5 5 4 4 3 3 3 3 3 3 3 3 4 4 4 3 3 3 3 2 2 3 2 1 1 1 1 1 0 2 3 3 4 5 5 6
2 3 2 3 5 6 5 5 5 4 3 3 4 3 3 3 3 3 4 4 3 3 3 2 3 3 3 2 3 2 1 1 1 0 0 0 0 1 2 4 5 6 6 7
4 3 3 3 3 5 4 4 4 5 5 4 4 4 4 4 4 4 3 3 2 2 2 2 3 3 3 3 3 2 1 1 1 0 0 0 1 1 2 2 3 4 5 7
5 3 2 2 3 3 3 3 4 4 4 5 4 4 4 4 3 3 3 2 3 3 3 3 3 3 3 3 3 2 1 1 1 0 1 1 1 1 2 2 3 3 4 5
4 3 3 3 4 4 4 4 3 3 4 4 5 4 4 3 3 3 3 3 3 3 3 3 3 3 3 3 3 2 1 2 2 1 1 1 1 1 2 2 3 3 3 4
3 2 3 3 3 3 4 3 3 3 3 4 4 3 3 3 3 3 3 3 3 3 3 3 3 3 3 3 3 2 1 1 2 2 1 1 1 2 2 2 3 3 4 5
3 2 2 2 2 3 3 4 4 3 3 3 3 3 3 3 2 2 3 3 3 4 4 3 3 4 3 3 2 2 2 1 1 1 1 1 2 2 2 2 3 4 4 5
5 5 5 4 4 3 3 3 3 3 3 3 3 3 3 3 3 3 3 3 3 3 4 4 5 4 3 3 3 2 1 1 1 1 1 2 2 2 2 3 3 4 4 4
5 4 4 4 4 4 3 3 3 3 3 3 3 3 3 3 3 3 3 3 2 2 2 4 4 3 3 3 4 2 1 1 1 1 2 2 2 2 3 3 3 4 4 4
4 4 4 4 4 4 4 4 3 3 3 3 3 2 2 3 3 3 2 2 3 3 3 5 3 3 3 3 4 2 1 1 1 1 2 2 2 3 3 3 4 4 4 5
3 3 4 3 4 4 4 3 3 3 3 3 3 3 3 3 3 3 2 1 2 4 4 3 3 4 5 5 2 1 1 1 1 1 1 2 2 3 3 4 4 4 4 4
3 3 3 3 3 3 3 3 3 3 3 2 2 2 2 2 2 2 2 2 2 5 4 3 4 7 7 4 2 2 1 1 1 2 2 2 3 3 3 4 4 4 4 4
3 3 3 2 3 3 3 3 3 2 2 2 2 1 1 2 2 2 2 4 6 6 3 4 7 7 7 3 3 2 2 2 2 2 2 2 2 3 3 4 4 4 4 5
2 2 2 2 2 2 2 2 2 2 2 2 2 2 2 1 1 2 3 3 5 6 3 5 7 7 5 3 2 2 2 2 2 2 2 2 3 3 3 4 4 4 4 4
2 2 2 2 1 1 1 2 2 2 2 2 2 2 2 2 2 2 2 3 4 5 4 3 4 4 3 3 2 3 2 3 4 3 3 3 3 3 4 4 5 4 4 4
1 1 1 1 2 2 2 1 2 2 2 2 2 2 2 2 2 2 3 3 3 3 3 3 3 3 2 2 3 3 3 3 3 3 3 3 3 3 4 5 4 4 4 4
Wind_Direction
283 292 243 240 226 221 226 230 235 246 250 257 257 145 119 100 107 115 118 116 121 125 126 124 122 121 121 121 118 121 122 122 124 117 112 112 113 113 109 104 104 107 113 113
276 277 272 263 242 229 231 235 244 259 267 287 352 40 58 72 88 110 128 127 123 120 127 131 132 131 125 125 125 117 118 122 120 119 118 119 122 121 115 110 109 108 128 130
252 271 296 259 235 225 227 227 229 241 249 282 326 11 18 61 93 117 127 129 127 133 140 137 136 135 135 129 120 119 124 126 124 124 122 125 121 110 113 113 96 76 38 59
257 242 236 243 318 242 232 235 236 252 254 245 198 57 43 46 76 77 64 75 94 106 115 116 115 117 117 116 120 123 125 125 123 124 128 125 120 123 111 87 77 292 312 314
217 232 257 257 322 292 225 239 250 247 276 23 82 61 29 33 50 70 68 66 70 75 94 107 114 119 118 117 122 125 130 133 134 135 136 135 140 144 122 82 357 320 319 316
226 228 234 341 342 339 295 247 10 18 27 40 71 167 211 35 44 51 52 55 57 60 74 94 107 114 115 122 125 133 137 133 130 138 147 150 152 141 87 68 331 343 323 306
233 239 268 341 329 357 166 262 351 11 30 56 54 73 93 58 49 53 52 52 59 66 80 93 102 110 116 117 128 128 117 121 128 131 137 141 128 118 116 71 349 317 302 301
210 223 253 7 27 48 353 1 9 29 50 66 71 68 68 60 50 48 54 52 56 66 70 79 89 106 114 118 113 104 106 111 114 112 108 102 107 92 99 74 299 295 300 304
188 198 358 33 37 21 25 20 12 34 46 72 77 67 63 57 48 47 57 57 59 74 72 75 84 99 116 115 110 109 106 106 107 98 90 103 118 116 80 360 310 299 298 301
54 349 29 21 14 28 39 35 26 39 54 61 63 64 60 53 46 50 52 54 59 70 71 62 65 74 88 95 106 116 115 107 104 97 76 52 43 54 252 279 286 294 296 300
262 303 341 8 27 31 36 35 36 37 43 52 58 48 50 58 61 52 54 56 61 71 72 64 64 68 66 71 96 104 103 99 96 96 94 53 10 332 299 268 262 280 277 284
272 308 310 331 4 23 28 22 22 27 31 34 48 50 45 54 54 54 60 65 69 67 67 58 58 63 56 46 66 94 98 95 101 101 78 69 14 350 348 332 321 316 312 308
326 348 5 9 17 18 17 16 23 27 32 36 36 49 59 59 51 54 60 65 66 69 66 56 57 55 53 53 58 75 92 93 88 94 96 26 322 321 323 330 328 323 318 314
19 20 360 357 358 5 10 21 36 41 41 47 47 50 55 56 51 50 52 53 56 69 66 58 57 48 38 50 54 50 59 68 65 78 43 307 292 294 290 300 312 315 312 311
6 7 356 357 12 10 18 41 47 41 36 41 47 52 53 53 44 37 38 50 58 62 57 53 52 35 29 38 36 23 35 64 62 36 334 305 303 303 300 300 303 307 314 313
351 10 27 23 20 22 32 39 46 34 29 33 37 36 38 42 41 39 37 46 59 56 45 48 45 24 25 31 24 16 27 8 7 6 352 338 326 314 310 308 309 308 306 307
348 352 5 9 13 22 27 34 45 37 31 33 29 24 36 45 46 39 29 34 50 50 44 42 27 18 21 23 18 5 3 353 355 3 351 327 316 308 306 306 305 306 304 305
19 16 21 30 31 29 29 37 43 38 31 25 24 33 47 56 53 31 20 27 36 39 39 32 21 16 13 7 5 359 350 345 346 338 330 323 317 309 308 304 303 303 306 310
39 41 40 40 39 41 41 38 37 33 28 30 37 40 43 42 37 35 31 33 34 24 11 9 4 11 0 354 360 358 348 339 337 329 318 311 319 308 306 304 302 301 305 311
43 44 45 43 41 43 44 41 40 35 29 35 44 46 41 28 22 18 20 23 26 15 354 352 359 358 352 343 352 343 329 319 317 318 317 312 309 312 309 306 306 307 309 311
40 42 43 44 42 38 38 37 41 37 28 32 44 43 32 15 9 10 15 6 4 9 359 355 360 343 334 334 340 336 326 322 318 313 314 313 312 311 309 309 311 312 313 314
32 39 37 38 42 35 30 31 35 37 34 33 36 37 31 18 11 8 8 350 341 346 355 349 342 335 337 341 344 336 328 321 318 316 314 312 309 307 307 310 311 311 312 312
38 41 36 33 36 30 27 30 33 40 38 29 24 23 16 351 344 350 346 345 348 344 350 337 331 336 341 353 349 340 334 335 328 320 311 305 301 301 303 306 309 310 311 312
43 40 34 29 36 44 38 28 31 37 30 11 11 8 1 356 352 354 341 331 337 338 343 334 339 341 350 7 358 352 347 337 321 310 304 301 302 304 304 305 306 306 307 309
47 40 35 33 38 39 37 32 29 28 29 24 12 7 4 359 341 335 333 330 334 342 345 342 345 349 359 355 350 348 343 328 315 314 310 312 310 309 307 305 306 307 309 310
40 38 36 27 18 18 19 22 24 21 23 17 8 9 6 360 343 334 336 336 337 342 349 344 341 343 349 348 346 340 334 327 327 328 319 314 308 307 306 307 305 306 306 306
44 45 38 25 20 27 30 27 19 9 10 6 350 348 349 346 344 343 341 340 340 340 338 336 336 336 339 341 337 331 327 323 319 315 312 308 304 301 302 302 304 305 309 310
Height
1420 1418 1418 1419 1420 1421 1424 1422 1424 1418 1417 1414 1414 1416 1417 1418 1419 1421 1423 1425 1427 1428 1430 1432 1433 1435 1436 1438 1440 1442 1443 1445 1447 1448 1450 1452 1453 1454 1455 1456 1457 1457 1457 1457
1422 1417 1417 1418 1416 1416 1417 1418 1418 1417 1416 1413 1414 1415 1417 1418 1419 1421 1423 1425 1426 1428 1430 1431 1432 1433 1434 1436 1438 1439 1441 1443 1444 1445 1447 1449 1450 1451 1452 1453 1453 1454 1454 1453
1424 1419 1418 1419 1413 1412 1413 1412 1413 1415 1415 1414 1415 1416 1418 1418 1419 1421 1423 1424 1425 1426 1428 1429 1431 1432 1432 1434 1435 1437 1439 1440 1441 1443 1445 1446 1447 1449 1449 1450 1450 1450 1450 1450
1425 1425 1427 1414 1408 1407 1408 1408 1409 1411 1412 1414 1415 1417 1418 1419 1420 1421 1422 1423 1424 1425 1427 1428 1429 1430 1431 1432 1434 1435 1436 1438 1439 1441 1442 1443 1445 1445 1446 1446 1446 1446 1446 1446
1426 1424 1416 1410 1409 1409 1410 1410 1410 1411 1412 1413 1414 1416 1418 1419 1420 1420 1421 1423 1423 1424 1425 1426 1427 1428 1429 1430 1432 1433 1434 1435 1437 1438 1439 1440 1441 1442 1443 1443 1443 1442 1442 1441
1424 1422 1419 1415 1411 1409 1411 1413 1412 1411 1412 1413 1414 1418 1420 1420 1419 1420 1421 1421 1422 1423 1424 1424 1426 1427 1428 1429 1430 1431 1432 1433 1435 1436 1437 1437 1438 1439 1439 1439 1439 1439 1438 1437
1425 1423 1417 1416 1412 1409 1417 1418 1414 1412 1412 1413 1415 1418 1419 1419 1419 1419 1420 1420 1421 1421 1422 1423 1424 1425 1426 1427 1428 1429 1430 1431 1432 1433 1434 1435 1435 1436 1436 1436 1436 1435 1434 1434
1425 1426 1424 1417 1415 1417 1419 1416 1415 1414 1414 1414 1416 1417 1418 1418 1419 1419 1419 1419 1419 1420 1420 1422 1423 1424 1424 1425 1427 1428 1429 1429 1430 1431 1432 1433 1433 1433 1433 1433 1432 1431 1430 1429
1422 1425 1421 1418 1418 1418 1417 1417 1416 1415 1415 1415 1416 1417 1417 1418 1418 1418 1418 1418 1418 1418 1419 1420 1421 1422 1423 1424 1425 1426 1427 1428 1429 1429 1430 1430 1431 1430 1430 1430 1429 1428 1427 1426
1420 1420 1419 1419 1418 1418 1417 1417 1417 1416 1415 1416 1416 1416 1417 1417 1418 1418 1417 1417 1417 1417 1418 1419 1420 1421 1422 1423 1424 1424 1425 1426 1426 1427 1428 1428 1428 1428 1427 1427 1426 1425 1424 1423
1420 1420 1420 1419 1419 1418 1418 1418 1417 1417 1416 1416 1416 1416 1417 1416 1417 1417 1417 1417 1417 1417 1417 1418 1419 1420 1421 1422 1422 1422 1423 1424 1425 1425 1426 1426 1426 1426 1425 1425 1424 1423 1422 1420
1420 1420 1421 1421 1420 1419 1418 1418 1417 1417 1416 1416 1416 1416 1416 1416 1416 1416 1416 1416 1416 1417 1417 1418 1418 1419 1419 1420 1421 1421 1421 1422 1422 1423 1423 1423 1423 1423 1422 1422 1421 1421 1419 1418
1420 1419 1419 1420 1419 1419 1418 1418 1417 1417 1416 1416 1416 1416 1415 1415 1415 1416 1416 1416 1416 1416 1417 1417 1417 1418 1418 1419 1419 1419 1420 1420 1420 1420 1420 1420 1420 1419 1418 1418 1418 1417 1415 1414
1419 1419 1419 1419 1419 1418 1418 1417 1417 1416 1416 1416 1415 1415 1415 1415 1415 1415 1415 1416 1416 1416 1416 1417 1417 1417 1417 1418 1418 1418 1418 1418 1418 1418 1418 1418 1418 1417 1416 1415 1413 1412 1412 1410
1419 1419 1419 1418 1418 1417 1417 1417 1416 1416 1416 1415 1415 1415 1415 1415 1415 1415 1415 1415 1415 1415 1415 1416 1415 1416 1416 1416 1416 1416 1416 1416 1416 1416 1416 1416 1415 1415 1414 1413 1411 1410 1408 1406
1419 1418 1418 1417 1417 1416 1416 1416 1416 1416 1416 1415 1415 1415 1415 1414 1414 1415 1415 1415 1414 1414 1414 1414 1414 1415 1415 1415 1415 1414 1415 1415 1415 1414 1414 1413 1413 1412 1411 1410 1408 1407 1405 1403
1418 1417 1417 1416 1416 1416 1416 1416 1415 1415 1415 1415 1415 1415 1414 1414 1414 1414 1414 1414 1414 1414 1414 1413 1413 1413 1413 1413 1413 1413 1413 1412 1412 1412 1412 1411 1410 1410 1408 1407 1406 1404 1403 1401
1417 1416 1416 1416 1415 1415 1415 1415 1415 1415 1415 1415 1414 1414 1414 1414 1413 1413 1413 1413 1413 1413 1413 1413 1412 1412 1412 1412 1411 1411 1411 1410 1410 1410 1409 1409 1408 1407 1406 1405 1403 1402 1399 1398
1415 1415 1415 1415 1415 1415 1414 1414 1414 1414 1414 1414 1414 1413 1413 1413 1413 1412 1412 1412 1412 1411 1411 1411 1411 1410 1410 1410 1409 1409 1409 1408 1408 1408 1407 1407 1406 1405 1403 1402 1401 1399 1397 1395
1415 1415 1414 1414 1414 1414 1414 1414 1414 1414 1414 1413 1413 1413 1413 1412 1412 1412 1411 1411 1411 1411 1410 1410 1409 1409 1408 1408 1408 1407 1407 1406 1406 1405 1405 1404 1403 1402 1401 1399 1398 1396 1394 1392
1415 1415 1414 1414 1414 1414 1413 1413 1413 1413 1413 1413 1413 1412 1412 1412 1411 1411 1410 1410 1410 1410 1409 1409 1408 1407 1407 1406 1405 1405 1404 1404 1403 1403 1402 1401 1400 1399 1398 1397 1395 1393 1391 1389
1415 1414 1414 1414 1413 1413 1413 1413 1413 1413 1412 1412 1412 1411 1411 1411 1410 1410 1410 1410 1409 1408 1407 1407 1406 1406 1405 1404 1403 1402 1402 1401 1401 1400 1400 1399 1398 1397 1395 1394 1392 1390 1389 1387
1414 1414 1413 1413 1413 1413 1412 1412 1412 1412 1412 1411 1411 1410 1410 1410 1410 1409 1408 1408 1408 1407 1406 1405 1405 1404 1403 1402 1401 1400 1400 1399 1399 1398 1397 1396 1395 1394 1393 1391 1390 1388 1386 1384
1414 1414 1413 1413 1413 1412 1412 1412 1412 1412 1411 1411 1411 1410 1410 1409 1409 1409 1408 1407 1406 1406 1405 1404 1403 1402 1402 1400 1399 1399 1398 1397 1396 1396 1395 1394 1393 1392 1390 1389 1387 1386 1384 1382
1413 1413 1413 1412 1412 1412 1412 1412 1412 1411 1411 1411 1410 1410 1409 1409 1408 1408 1407 1406 1406 1405 1404 1403 1402 1401 1400 1399 1398 1397 1396 1396 1395 1394 1393 1392 1391 1390 1388 1387 1385 1383 1382 1380
1413 1413 1412 1412 1412 1412 1412 1412 1411 1411 1410 1410 1410 1409 1409 1408 1408 1407 1406 1406 1405 1404 1403 1402 1401 1400 1399 1398 1397 1396 1395 1394 1393 1392 1391 1390 1389 1388 1386 1385 1383 1381 1380 1378
1412 1412 1412 1412 1412 1412 1411 1411 1411 1410 1410 1409 1409 1408 1408 1407 1407 1406 1405 1405 1404 1403 1402 1401 1400 1399 1398 1397 1396 1395 1394 1393 1392 1391 1389 1388 1387 1386 1384 1383 1381 1379 1378 1376